Wind_Speed
4 5 6 7 8 8 8 8 7 7 7 4 1 3 1 4 10 10 7 6 7 8 9 6 4 2 1 3 4 5 6 11 13 13 11 10 8 14 6 13 10 7 9 6 9
6 6 7 8 9 9 8 7 7 6 5 2 2 2 4 2 4 8 7 9 10 10 7 7 5 2 2 3 4 7 8 12 9 10 11 13 14 14 14 11 18 15 10 4 2
7 8 9 9 9 9 8 7 6 5 3 2 1 3 3 6 3 6 6 8 9 10 7 7 6 3 3 4 4 4 11 9 10 12 13 16 17 16 17 16 20 18 12 5 8
7 8 9 9 9 9 8 7 5 4 3 3 2 3 5 4 2 1 4 7 9 9 8 8 6 4 5 5 4 8 8 8 11 11 12 14 16 18 18 18 18 19 20 17 13
7 9 9 9 10 10 7 6 5 4 4 4 3 2 2 2 4 2 4 7 7 7 8 9 7 6 7 7 7 9 8 11 14 14 16 17 18 17 19 19 17 18 21 23 19
7 8 9 10 10 8 7 6 5 5 5 6 3 3 2 3 2 2 5 6 6 6 7 7 6 7 9 9 8 10 14 15 12 11 12 13 16 16 14 6 11 14 19 19 19
7 7 9 11 10 8 8 6 5 5 6 7 4 2 3 3 1 3 6 5 8 6 7 5 5 6 10 10 5 11 10 11 1 6 10 9 14 16 13 8 12 12 13 14 16
7 8 10 11 7 8 7 3 3 6 6 7 6 2 2 3 2 4 5 6 7 5 5 4 5 6 5 10 10 7 7 8 9 4 3 5 12 10 5 11 12 16 16 14 14
6 8 10 11 8 8 4 2 4 5 6 4 3 3 3 2 2 6 6 6 7 4 4 4 3 5 8 9 10 6 12 12 8 2 5 7 15 13 15 17 18 19 19 20 16
5 7 10 11 7 8 3 4 4 3 5 2 4 5 2 2 5 4 5 8 4 6 7 4 5 9 3 10 9 15 15 13 11 9 11 11 13 11 12 13 14 14 17 20 18
6 6 9 9 7 6 5 7 2 2 5 4 2 1 2 5 3 2 5 7 5 8 6 2 9 6 9 9 11 13 14 14 11 7 10 11 8 5 7 6 9 15 13 14 15
7 6 8 7 3 4 3 5 7 6 3 5 3 0 1 4 5 4 7 7 9 8 7 7 3 6 9 11 13 15 12 13 7 3 8 12 4 3 10 13 17 14 13 13 13
8 7 8 7 2 4 1 6 7 9 4 6 5 4 3 4 4 3 7 9 7 7 6 8 6 6 9 11 13 14 9 15 15 13 7 16 8 8 18 15 18 22 23 17 14
10 7 7 6 2 5 3 2 10 6 5 10 6 4 3 3 5 2 3 4 3 5 8 6 3 6 10 10 12 11 17 13 8 7 7 10 2 7 16 15 18 20 21 19 15
12 8 5 4 3 3 5 2 10 2 5 6 5 3 2 4 3 3 3 3 5 5 4 5 6 8 9 11 11 10 14 8 6 9 7 12 5 5 19 16 22 24 21 17 15
13 10 6 5 4 3 1 7 6 5 4 6 5 3 5 2 2 5 2 2 3 4 6 5 3 3 7 14 7 14 14 5 6 8 1 13 5 5 12 12 17 20 21 18 18
16 13 10 6 5 3 4 5 5 7 3 7 5 3 3 2 3 2 2 5 5 4 1 5 4 1 6 13 3 15 14 3 2 4 7 13 3 7 12 11 11 14 19 19 17
17 16 13 11 10 6 6 6 9 3 5 4 4 5 5 1 3 1 3 2 3 6 5 4 4 4 8 6 7 8 7 3 2 5 6 8 8 6 9 7 12 20 19 17 19
18 15 16 14 11 9 8 9 9 3 7 9 5 7 6 4 4 4 1 1 3 6 6 4 0 3 4 4 7 9 7 3 2 5 5 2 9 5 10 14 19 22 25 23 22
15 9 12 15 13 9 8 14 3 4 6 9 8 6 6 7 5 3 2 3 2 2 6 2 4 3 2 2 3 4 3 2 1 4 5 3 9 8 14 15 15 19 22 23 24
12 8 12 18 15 10 11 17 5 8 8 7 7 6 5 5 4 3 2 5 2 3 4 4 3 5 3 1 5 2 2 3 3 2 4 7 7 8 10 10 12 16 16 19 23
13 7 11 20 12 14 14 12 4 12 8 4 4 6 8 7 5 4 2 1 4 1 4 3 5 4 2 4 1 3 4 6 4 6 4 4 4 7 7 9 10 12 12 15 17
11 14 12 20 9 13 12 6 9 10 10 9 9 7 4 7 5 5 4 4 5 2 3 1 3 5 8 4 3 4 1 4 6 4 7 4 4 4 6 9 9 11 12 12 15
15 7 8 17 21 14 18 15 10 13 10 7 7 8 8 7 4 5 5 4 5 3 1 2 6 8 7 7 5 9 8 6 6 4 8 3 5 4 4 4 7 9 10 11 12
21 16 17 10 19 16 16 12 19 10 9 15 7 12 11 7 7 6 7 6 5 5 4 4 6 6 11 11 11 13 12 12 13 12 7 8 6 3 1 4 7 9 9 10 11
24 14 17 20 27 24 17 20 21 18 16 12 12 17 14 8 8 9 11 8 5 8 6 4 4 6 12 7 5 10 9 10 12 12 12 13 12 0 7 8 8 9 10 10 10
32 22 14 20 16 18 24 24 23 18 16 15 19 11 16 14 8 7 6 4 2 5 8 4 3 4 3 2 8 11 4 11 12 7 9 6 5 8 7 8 10 11 11 12 12
Wind_Direction
314 322 328 325 323 317 318 329 338 342 346 352 250 216 244 49 49 33 34 20 24 13 25 337 1 343 201 229 244 248 255 258 265 273 288 280 277 272 253 282 257 258 284 2 127
322 325 325 323 320 318 320 326 326 324 321 337 269 263 255 231 49 36 23 29 35 32 24 10 352 322 244 245 228 240 255 278 346 327 299 290 290 288 276 257 253 238 239 286 164
328 329 325 325 322 320 320 317 304 305 307 259 292 8 280 197 282 30 13 24 28 27 355 355 351 314 278 267 230 252 263 328 303 298 300 292 281 274 270 266 262 272 257 174 219
328 329 325 327 325 323 320 307 288 280 255 213 129 58 84 146 17 335 360 15 16 17 356 346 333 289 285 284 271 275 243 288 295 292 293 281 289 280 273 273 274 268 260 258 238
332 324 329 331 331 327 317 300 274 260 230 195 176 140 129 183 79 307 1 2 360 354 354 355 340 331 286 315 293 252 291 303 290 284 277 278 272 275 275 270 264 258 253 252 249
326 323 335 337 332 323 316 300 269 244 213 191 176 204 309 207 188 323 340 346 351 345 341 347 343 326 290 299 287 337 301 292 285 283 290 272 281 278 273 275 277 262 250 247 246
314 329 343 339 326 326 326 308 263 224 191 185 165 122 252 76 227 312 333 323 330 330 328 321 311 313 328 302 310 296 287 276 4 328 303 318 275 251 255 252 275 274 249 240 249
314 342 339 336 335 340 334 319 203 174 173 182 199 205 358 240 288 344 332 316 327 322 321 302 297 294 297 302 258 271 254 340 15 330 8 290 300 314 333 296 287 282 281 270 246
314 337 337 333 341 346 352 106 163 164 180 167 178 241 139 284 310 310 331 317 304 294 301 291 281 281 273 279 274 202 337 341 327 305 293 278 301 301 304 310 301 291 275 261 255
309 334 333 336 349 352 71 135 139 150 153 169 213 241 201 292 297 325 328 331 290 282 256 266 255 261 337 355 347 324 327 324 318 350 341 307 319 332 351 322 302 297 276 269 255
299 326 333 340 356 358 124 112 165 181 203 294 87 326 37 315 261 295 328 322 287 257 332 274 281 7 341 338 323 308 306 303 347 20 326 356 324 33 17 348 345 335 313 296 280
291 312 327 334 334 355 178 227 226 168 180 190 174 152 265 341 255 234 345 321 315 297 304 222 263 4 316 307 311 313 315 339 304 214 303 336 222 148 46 28 357 329 322 305 283
278 298 318 325 284 343 253 227 186 161 226 192 219 259 273 306 280 295 349 325 311 286 333 294 18 332 315 316 340 325 346 326 303 313 243 333 185 225 24 19 5 347 343 312 310
273 278 305 323 325 330 310 242 178 174 232 159 201 199 240 285 227 260 344 323 252 318 322 283 21 312 322 324 344 306 359 322 289 290 347 27 321 62 17 5 358 353 335 323 313
267 273 280 285 233 325 291 179 159 171 259 138 152 188 230 254 334 175 339 264 302 328 282 69 327 329 310 347 330 312 324 323 305 285 324 11 317 335 15 351 341 338 347 337 326
263 262 263 273 252 270 237 150 153 230 230 151 150 185 227 222 206 312 317 288 266 275 217 286 315 288 324 315 294 300 309 216 277 265 255 15 16 338 10 336 325 351 349 349 340
261 264 255 237 214 234 158 150 219 246 145 157 174 195 241 192 187 315 350 37 18 306 41 264 172 7 325 322 189 354 352 5 333 3 26 2 326 43 351 352 357 349 358 357 355
249 259 258 244 229 213 171 219 248 5 179 101 155 165 221 192 175 270 237 176 99 328 284 321 194 4 9 4 326 333 334 36 298 352 330 312 5 14 334 65 34 13 14 16 10
235 249 257 248 227 206 214 218 250 179 138 161 152 209 181 198 277 241 296 72 50 5 343 326 289 120 23 336 342 353 13 358 299 209 264 231 64 165 26 23 24 26 15 19 15
224 230 235 238 212 193 235 237 204 136 139 177 218 217 201 178 217 225 193 105 146 2 327 57 282 125 40 262 195 326 331 264 130 335 324 26 60 5 6 11 18 28 20 12 25
216 215 223 212 191 206 229 230 187 185 172 195 218 186 225 185 232 211 122 135 193 157 307 312 265 139 189 179 345 247 353 343 270 351 331 322 69 11 12 19 25 39 23 22 33
211 220 207 183 196 216 229 216 187 178 183 176 232 228 203 180 197 219 225 36 134 233 294 45 312 281 8 99 227 308 337 325 329 345 303 264 71 30 37 53 38 57 39 33 51
209 208 193 173 213 212 217 195 206 176 192 183 189 196 183 188 204 211 190 95 152 223 323 51 202 279 158 169 177 240 319 294 305 267 276 315 68 34 55 73 61 64 57 52 54
220 194 183 206 228 239 207 210 198 202 195 190 163 162 167 188 185 177 205 158 191 222 276 290 265 266 296 340 311 285 289 238 287 274 341 298 358 84 73 91 97 92 87 83 70
219 221 198 196 211 213 225 205 199 178 210 187 184 199 179 178 181 203 204 152 185 181 211 251 263 266 278 280 277 279 273 265 243 255 280 356 316 357 110 129 120 128 124 110 98
198 223 213 226 202 204 211 213 205 185 169 194 222 197 193 185 193 187 175 194 200 181 198 199 279 289 288 253 246 262 259 246 243 253 260 275 283 84 139 140 149 144 143 139 130
216 217 225 214 208 197 212 210 202 186 204 195 201 184 199 204 165 123 156 138 160 187 201 219 274 299 272 212 282 265 270 230 230 231 231 257 52 153 170 175 171 160 160 155 151
Height
1532 1530 1529 1528 1526 1525 1525 1523 1522 1520 1519 1519 1518 1517 1517 1515 1514 1513 1513 1513 1511 1508 1506 1506 1506 1505 1505 1504 1504 1503 1499 1492 1485 1483 1482 1481 1482 1484 1485 1487 1483 1484 1484 1484 1467
1531 1530 1528 1527 1525 1524 1524 1522 1522 1520 1519 1519 1518 1517 1516 1516 1515 1516 1514 1512 1510 1508 1509 1508 1506 1505 1503 1503 1503 1500 1494 1488 1486 1487 1487 1486 1484 1483 1484 1485 1482 1482 1483 1483 1483
1531 1529 1528 1526 1525 1523 1523 1521 1521 1520 1519 1519 1518 1516 1515 1516 1516 1516 1515 1513 1511 1509 1509 1508 1507 1506 1503 1504 1501 1496 1495 1488 1492 1492 1491 1489 1488 1487 1486 1484 1484 1480 1480 1482 1483
1530 1529 1527 1526 1524 1522 1521 1520 1519 1519 1518 1518 1517 1517 1516 1516 1514 1517 1515 1513 1512 1510 1511 1509 1506 1505 1503 1500 1500 1499 1492 1494 1493 1492 1492 1490 1488 1485 1484 1483 1484 1484 1483 1482 1483
1530 1529 1527 1525 1523 1521 1520 1519 1518 1517 1517 1517 1517 1517 1517 1516 1518 1516 1515 1513 1512 1512 1511 1509 1506 1505 1500 1500 1499 1496 1492 1493 1491 1491 1490 1488 1486 1483 1481 1481 1481 1482 1482 1482 1482
1530 1529 1526 1524 1522 1520 1519 1517 1516 1516 1516 1517 1517 1517 1517 1514 1517 1516 1515 1514 1513 1512 1511 1510 1508 1507 1503 1500 1499 1495 1494 1491 1487 1487 1486 1485 1482 1480 1479 1476 1479 1477 1477 1477 1478
1530 1528 1525 1523 1521 1519 1517 1515 1515 1515 1516 1516 1517 1517 1518 1518 1517 1516 1514 1514 1513 1512 1511 1510 1508 1507 1503 1497 1498 1496 1492 1484 1484 1483 1483 1483 1479 1472 1474 1474 1476 1474 1473 1474 1475
1530 1526 1524 1523 1520 1518 1516 1515 1514 1515 1516 1517 1517 1517 1516 1516 1516 1516 1515 1515 1512 1511 1510 1508 1507 1506 1503 1500 1494 1490 1485 1482 1478 1482 1482 1484 1481 1470 1471 1474 1473 1473 1471 1469 1471
1528 1526 1524 1522 1519 1517 1515 1514 1515 1516 1516 1517 1518 1518 1514 1516 1516 1515 1514 1514 1512 1511 1509 1507 1507 1503 1498 1490 1479 1479 1486 1483 1480 1477 1480 1480 1478 1473 1473 1473 1472 1471 1470 1467 1466
1526 1525 1524 1521 1519 1517 1514 1515 1516 1517 1517 1517 1518 1521 1516 1515 1514 1513 1513 1511 1511 1510 1508 1507 1504 1497 1489 1492 1500 1496 1491 1485 1480 1476 1479 1478 1474 1474 1477 1478 1475 1472 1469 1466 1463
1525 1523 1522 1521 1519 1517 1515 1516 1521 1520 1517 1516 1516 1515 1514 1515 1513 1513 1512 1511 1510 1507 1503 1502 1499 1498 1497 1497 1497 1493 1487 1482 1476 1480 1482 1477 1476 1478 1477 1477 1476 1475 1470 1465 1461
1525 1523 1521 1520 1518 1517 1516 1517 1514 1515 1516 1515 1515 1515 1514 1513 1512 1511 1511 1510 1507 1502 1501 1500 1495 1498 1499 1496 1492 1487 1482 1480 1476 1477 1480 1475 1475 1474 1474 1477 1478 1475 1473 1468 1466
1523 1522 1521 1519 1518 1517 1514 1514 1513 1514 1513 1515 1515 1514 1515 1514 1511 1509 1511 1508 1504 1501 1500 1501 1496 1500 1497 1493 1490 1486 1486 1487 1486 1476 1474 1470 1471 1473 1475 1480 1483 1480 1475 1470 1465
1521 1520 1520 1519 1520 1516 1515 1512 1513 1514 1508 1509 1512 1513 1514 1512 1510 1510 1509 1510 1502 1503 1503 1497 1499 1500 1496 1491 1493 1490 1486 1487 1483 1480 1477 1473 1477 1468 1476 1481 1483 1480 1478 1471 1467
1518 1518 1518 1518 1517 1518 1515 1513 1514 1516 1511 1507 1509 1510 1511 1512 1510 1508 1507 1506 1503 1502 1505 1501 1500 1500 1497 1495 1493 1489 1486 1487 1482 1479 1475 1474 1481 1470 1476 1484 1483 1478 1475 1471 1466
1515 1516 1516 1517 1516 1515 1513 1514 1516 1515 1507 1505 1506 1508 1508 1509 1508 1508 1506 1506 1506 1503 1502 1500 1503 1502 1498 1495 1491 1489 1478 1480 1480 1475 1481 1479 1490 1472 1489 1492 1485 1480 1474 1470 1464
1513 1513 1514 1514 1516 1513 1513 1516 1513 1506 1498 1502 1503 1506 1505 1505 1506 1506 1505 1504 1504 1502 1496 1493 1497 1500 1502 1494 1487 1487 1478 1488 1485 1485 1483 1479 1483 1488 1489 1488 1486 1481 1476 1470 1465
1510 1511 1510 1510 1511 1512 1513 1514 1509 1488 1488 1499 1502 1505 1505 1506 1505 1504 1502 1501 1507 1505 1501 1502 1500 1498 1500 1500 1500 1493 1494 1508 1521 1500 1497 1480 1494 1490 1488 1485 1483 1481 1477 1473 1467
1504 1507 1507 1507 1509 1511 1513 1502 1485 1479 1488 1496 1503 1502 1502 1505 1506 1502 1502 1502 1506 1508 1507 1503 1499 1498 1501 1502 1501 1494 1497 1502 1510 1503 1500 1478 1478 1481 1481 1481 1481 1482 1477 1473 1470
1500 1503 1503 1503 1506 1509 1506 1490 1480 1486 1491 1492 1493 1494 1495 1501 1504 1501 1502 1505 1508 1511 1510 1504 1506 1496 1499 1502 1501 1500 1501 1498 1493 1513 1496 1467 1476 1484 1481 1484 1483 1484 1484 1479 1475
1499 1498 1495 1497 1503 1505 1494 1482 1481 1488 1490 1491 1487 1493 1492 1498 1499 1499 1500 1507 1508 1510 1511 1507 1505 1498 1498 1497 1497 1496 1493 1492 1496 1495 1497 1485 1481 1483 1484 1487 1487 1490 1489 1485 1482
1494 1491 1487 1493 1499 1490 1484 1479 1483 1486 1490 1490 1490 1489 1490 1495 1499 1500 1500 1502 1508 1510 1508 1507 1504 1499 1493 1497 1500 1499 1497 1495 1497 1497 1486 1488 1486 1483 1486 1489 1491 1493 1493 1491 1488
1483 1484 1485 1487 1481 1477 1478 1480 1483 1485 1485 1487 1488 1490 1493 1495 1501 1500 1501 1509 1510 1511 1508 1509 1499 1497 1497 1502 1500 1497 1496 1500 1497 1497 1485 1490 1481 1485 1487 1490 1494 1494 1495 1495 1494
1478 1475 1481 1480 1472 1468 1469 1473 1478 1480 1481 1484 1485 1490 1493 1496 1498 1501 1504 1508 1511 1511 1513 1513 1503 1499 1493 1490 1493 1497 1494 1497 1498 1498 1484 1478 1481 1481 1487 1489 1494 1497 1497 1496 1497
1467 1453 1452 1458 1461 1464 1461 1463 1468 1476 1479 1482 1486 1484 1486 1495 1500 1502 1500 1506 1509 1512 1512 1511 1502 1496 1492 1490 1491 1492 1493 1494 1496 1491 1493 1481 1485 1481 1486 1489 1494 1497 1499 1500 1500
1446 1450 1447 1447 1451 1456 1458 1454 1457 1463 1470 1476 1476 1480 1483 1486 1488 1493 1494 1497 1497 1508 1508 1508 1501 1499 1493 1484 1490 1492 1488 1488 1489 1488 1486 1485 1483 1480 1487 1490 1494 1497 1499 1501 1503
1441 1443 1443 1441 1439 1446 1438 1443 1447 1455 1464 1463 1470 1475 1481 1482 1486 1487 1491 1494 1497 1500 1503 1504 1501 1498 1486 1484 1483 1480 1474 1475 1480 1480 1481 1482 1478 1483 1489 1490 1492 1496 1499 1502 1504